Location: Lafig�re
(44.4503°N, 4.0357°E)
Time: 16:59:36
(UTC+00:00)

S-56A Canister/Altair - Pass Details

Date: 24 January 2021
Orbit: 631 x 2501 km, 38.9° (Epoch: 04 March)

Event Time Altitude Azimuth Distance (km) Brightness Sun altitude
Rises 03:02:25 0° 244° (WSW) 2,973 - -43.9°
Reaches altitude 10° 03:04:52 10° 236° (SW) 2,011 - -43.5°
Maximum altitude 03:08:56 37° 168° (SSE) 992 - -42.8°
Drops below altitude 10° 03:13:22 10° 101° (E) 2,184 - -42.0°
Exits shadow 03:13:22 10° 101° (E) 2,185 10.4 -42.0°
Sets 03:16:08 0° 93° (E) 3,270 11.5 -41.5°
